Wind_Speed
16 16 16 15 15 15 15 15 15 15 14 14 14 14 15 15 15 15 15 14 14 14 14 14 14 14 14 13 13 13 13 13 13 13 13 13 13 13 13 13 13 13 14
17 17 17 17 17 17 16 16 16 16 16 15 15 16 16 16 16 16 16 16 16 15 16 16 16 16 15 15 15 15 15 15 15 15 15 15 15 15 15 14 15 15 15
19 19 18 18 18 18 18 18 18 18 17 17 17 17 17 17 17 17 17 17 17 17 17 17 18 18 17 17 17 17 17 17 17 17 17 17 17 17 17 16 16 17 17
20 20 20 20 20 20 20 20 19 19 19 19 19 19 19 18 18 18 18 18 18 18 19 19 19 19 19 19 19 19 19 19 19 19 19 19 19 19 19 18 18 18 18
22 22 22 21 21 21 21 21 21 21 21 21 21 21 20 20 19 19 19 19 19 20 20 21 20 21 21 21 22 22 22 21 21 21 21 21 20 20 20 20 20 20 19
24 24 23 22 22 22 22 22 22 22 22 23 23 22 22 22 21 21 21 21 21 21 22 22 22 22 22 23 23 23 23 23 23 23 23 23 23 23 22 22 22 22 21
26 25 25 24 24 24 24 24 24 24 24 24 24 24 24 24 24 23 23 23 24 23 24 24 24 25 25 24 25 25 25 25 25 25 24 24 24 24 24 24 24 24 24
28 27 27 27 26 26 26 26 26 25 26 26 26 26 26 26 26 26 26 26 26 25 25 26 26 27 27 27 26 27 27 27 27 27 27 26 26 26 26 26 26 26 26
30 29 29 29 28 28 28 28 28 28 28 28 28 28 28 28 29 28 28 28 28 28 28 28 28 28 29 29 28 28 29 29 29 29 29 28 28 28 28 28 28 28 27
32 31 31 30 31 31 30 30 30 30 31 31 31 31 31 31 31 31 31 30 30 30 30 30 30 29 29 29 30 30 30 30 30 30 30 30 30 30 30 30 29 29 29
33 33 33 32 32 32 33 33 33 33 33 33 33 33 33 33 33 33 33 32 32 32 32 32 31 31 31 31 31 31 31 31 31 31 31 31 31 32 32 31 31 31 31
34 34 34 34 34 34 34 34 34 35 35 35 35 35 35 35 35 34 34 34 34 34 34 34 34 34 34 33 33 33 33 33 32 32 32 32 32 33 33 33 33 33 32
35 34 35 35 35 35 35 36 36 36 36 36 37 36 37 37 37 36 36 36 36 36 36 36 36 36 36 36 36 35 35 34 33 34 34 34 34 34 34 34 34 34 34
35 36 36 36 36 36 37 37 37 37 38 38 38 38 38 39 39 39 38 38 38 38 38 38 38 38 38 38 38 37 36 35 35 35 35 35 35 36 36 36 36 36 36
36 36 37 38 38 38 38 38 38 38 39 39 40 39 40 40 40 41 41 41 41 40 40 40 39 39 39 39 39 38 38 38 37 37 37 37 37 37 38 38 38 38 38
37 37 38 38 39 39 39 39 39 40 40 40 40 40 41 41 42 43 42 42 42 42 42 41 40 40 40 40 40 40 40 40 40 39 39 40 39 39 39 39 39 39 38
37 38 39 39 39 40 39 40 40 40 40 41 41 42 42 43 43 44 44 44 43 43 43 42 41 41 42 42 41 41 41 41 41 41 41 41 40 40 40 39 39 39 38
37 37 38 39 40 40 40 40 40 40 41 42 42 42 43 43 44 44 44 44 43 44 43 43 43 43 43 43 42 42 43 43 42 42 42 42 41 40 40 40 39 39 38
38 38 38 38 39 40 40 41 41 41 41 42 42 43 43 44 44 44 44 45 45 44 44 44 44 44 44 44 43 43 44 43 43 42 42 42 41 40 40 40 40 40 39
39 38 38 38 39 39 40 41 42 42 42 43 43 43 44 44 45 45 45 45 45 45 45 45 45 45 44 44 44 44 44 43 43 43 42 42 41 41 41 41 41 40 40
39 38 38 39 40 40 40 41 42 43 44 44 44 44 45 44 45 45 45 46 45 46 45 44 45 45 45 44 44 44 44 44 44 43 43 43 42 41 41 41 41 41 41
39 39 38 39 40 41 41 41 42 42 43 44 44 44 44 44 45 46 46 45 45 45 45 45 44 45 45 45 45 44 44 44 44 43 43 42 41 41 41 40 41 41 41
39 39 39 40 40 40 40 40 41 42 42 42 42 43 43 44 45 45 46 46 44 44 44 45 45 44 44 45 45 44 44 43 43 42 41 41 40 40 41 40 41 40 41
38 39 39 39 39 40 40 40 40 40 40 40 41 41 41 42 43 43 44 44 44 43 43 43 43 43 43 44 44 44 44 43 42 41 41 40 40 39 40 40 40 40 40
37 38 39 39 39 39 39 39 38 38 39 39 39 40 41 41 41 42 42 41 42 42 42 42 42 42 42 42 43 42 42 42 42 42 41 40 40 39 39 40 40 40 40
35 36 37 38 37 37 37 38 38 37 37 38 38 38 39 39 39 39 39 40 40 40 40 40 40 41 41 41 41 41 42 42 42 42 41 41 40 39 39 40 40 40 40
Wind_Direction
249 250 250 250 251 253 253 253 253 254 257 259 259 259 260 261 264 265 267 267 268 268 267 267 266 265 265 265 265 267 268 269 269 268 269 270 270 270 269 268 267 268 269
250 250 251 251 250 251 252 252 252 253 256 259 260 259 261 263 264 264 266 267 268 268 268 267 268 268 267 267 268 268 269 271 271 270 270 270 270 271 269 269 268 269 270
251 251 252 251 251 251 251 252 253 254 255 258 260 260 261 263 264 264 266 268 268 268 268 268 267 268 268 269 268 269 270 271 271 271 270 269 269 270 269 269 270 270 270
253 252 252 252 253 253 253 253 254 255 256 258 259 261 261 262 263 265 267 268 269 268 268 268 268 268 268 269 269 269 268 269 270 271 270 269 269 269 269 269 269 270 272
252 253 253 252 253 254 255 255 255 255 256 258 259 260 261 262 263 264 267 269 270 270 270 270 270 269 270 270 270 269 268 268 268 269 269 268 268 268 269 268 269 271 272
253 253 253 254 254 255 255 255 256 256 257 258 258 259 261 262 263 265 266 268 270 271 271 270 270 271 271 271 271 271 270 269 268 269 268 267 267 268 268 268 269 270 272
254 255 255 254 254 255 256 256 256 256 257 258 258 259 261 262 263 264 266 268 269 270 271 272 271 271 271 271 271 271 270 269 269 268 268 268 268 268 268 269 269 271 271
254 255 255 255 255 255 256 256 256 257 258 258 259 260 262 264 265 265 266 268 268 269 270 272 272 272 272 272 272 271 270 269 268 267 267 267 268 268 268 268 269 270 271
254 255 256 256 256 256 256 257 257 257 258 259 260 261 262 264 265 266 267 268 268 268 269 270 272 272 272 272 272 273 271 270 270 268 267 266 267 267 268 268 269 269 270
256 256 256 256 256 255 256 257 258 258 258 259 260 261 263 264 265 266 267 267 268 268 269 269 270 271 271 271 271 272 272 270 270 268 267 267 267 267 267 267 269 269 270
256 256 255 257 257 257 257 257 259 259 259 260 261 262 263 265 266 266 267 267 268 268 268 269 269 270 270 272 273 272 273 273 270 268 268 268 267 268 268 268 269 269 270
255 256 256 257 257 258 258 259 259 260 260 261 262 263 264 265 265 266 267 267 267 268 268 268 269 269 270 271 272 273 273 273 271 269 268 268 268 268 268 268 268 269 270
256 255 256 257 258 259 259 259 260 262 262 262 262 263 263 264 265 265 266 266 266 267 268 268 269 270 270 271 272 272 272 272 271 270 269 269 269 268 268 267 267 269 270
256 256 256 258 259 259 260 260 260 262 262 263 263 263 263 263 264 264 265 265 266 267 267 268 269 270 271 271 271 270 271 271 271 270 269 269 269 268 268 267 268 269 269
257 257 257 257 259 259 260 261 261 262 262 263 263 263 263 264 264 265 266 266 266 266 267 267 269 270 271 270 270 269 269 270 270 271 270 269 269 269 268 268 268 269 269
258 258 258 258 259 260 260 260 261 262 262 263 264 264 263 265 265 265 265 266 266 266 265 266 268 270 270 270 269 269 270 269 269 270 270 270 270 269 268 267 268 268 269
258 259 259 258 259 260 260 261 261 261 263 263 264 264 265 266 266 266 265 265 265 265 266 266 267 269 270 270 270 270 270 271 270 270 271 271 270 269 268 267 267 267 268
258 259 259 259 259 260 261 261 261 262 263 263 264 265 266 267 266 266 266 265 265 265 266 267 268 268 269 269 269 269 270 271 272 271 270 270 270 269 268 267 266 266 267
259 259 260 260 260 261 262 262 262 263 264 264 264 265 266 267 267 266 266 266 266 266 267 267 268 268 267 267 268 269 270 271 272 271 270 271 270 269 268 267 266 265 266
259 260 260 260 261 261 262 262 263 263 264 265 266 267 267 268 267 266 266 266 267 267 268 268 268 267 266 267 267 268 270 271 272 271 270 270 269 268 267 268 267 265 265
259 261 262 262 261 262 263 263 263 264 264 265 267 268 268 268 267 266 266 266 266 267 268 268 268 266 266 266 267 268 268 270 270 270 269 268 267 267 267 268 267 266 266
260 261 262 263 263 263 263 264 264 265 266 267 268 268 268 268 267 266 267 267 267 267 267 267 268 266 266 266 267 268 268 268 268 268 269 268 267 267 267 267 268 267 266
261 262 262 263 263 264 265 265 266 266 268 269 268 268 268 267 266 266 267 267 267 268 267 267 266 266 266 266 267 267 268 266 267 267 268 267 267 267 267 267 268 267 267
261 261 262 262 263 265 266 266 267 267 268 268 268 269 268 267 267 267 267 267 268 269 269 268 266 266 266 266 266 266 267 265 265 265 267 267 267 267 267 267 268 267 268
262 261 261 263 263 264 266 265 265 266 267 267 268 268 268 268 269 269 268 267 268 269 270 268 267 267 267 266 265 264 265 264 265 265 266 267 267 267 268 268 268 269 269
263 262 262 263 263 264 265 264 264 265 267 268 269 268 268 269 269 269 269 268 268 269 269 268 268 267 268 267 265 264 264 264 264 265 266 266 266 268 269 270 269 269 270
Height
5844 5844 5844 5844 5845 5845 5846 5846 5847 5847 5848 5848 5849 5849 5849 5849 5850 5850 5850 5850 5850 5850 5850 5850 5850 5850 5849 5849 5849 5849 5849 5849 5849 5848 5848 5848 5847 5847 5847 5847 5846 5846 5846
5841 5841 5841 5842 5842 5842 5843 5843 5844 5844 5845 5845 5846 5846 5846 5847 5847 5847 5847 5847 5847 5847 5847 5847 5847 5847 5847 5847 5846 5846 5846 5846 5846 5846 5845 5845 5845 5844 5844 5844 5844 5844 5843
5837 5838 5838 5838 5839 5839 5840 5840 5841 5841 5842 5842 5843 5843 5843 5844 5844 5844 5844 5844 5844 5844 5844 5844 5844 5843 5844 5844 5843 5843 5843 5843 5843 5842 5842 5842 5842 5841 5841 5841 5841 5840 5840
5833 5834 5834 5835 5835 5836 5836 5837 5837 5838 5838 5839 5839 5840 5840 5840 5841 5841 5841 5841 5841 5840 5840 5840 5840 5840 5840 5840 5840 5840 5839 5839 5839 5839 5839 5838 5838 5838 5838 5837 5837 5837 5837
5828 5829 5830 5830 5831 5832 5832 5833 5833 5834 5835 5835 5836 5836 5837 5837 5837 5837 5837 5837 5837 5837 5837 5836 5836 5836 5836 5836 5836 5836 5835 5835 5835 5835 5835 5834 5834 5834 5834 5834 5833 5833 5833
5824 5824 5825 5826 5826 5827 5828 5829 5829 5830 5831 5831 5832 5832 5833 5833 5833 5833 5833 5833 5833 5833 5833 5832 5832 5832 5831 5831 5831 5831 5831 5831 5831 5831 5830 5830 5830 5830 5830 5829 5829 5829 5829
5819 5819 5820 5821 5821 5822 5823 5824 5825 5825 5826 5827 5827 5828 5828 5828 5829 5829 5829 5829 5829 5828 5828 5828 5827 5827 5826 5826 5826 5826 5826 5826 5826 5826 5826 5825 5825 5825 5825 5825 5825 5824 5824
5813 5814 5814 5815 5816 5817 5818 5819 5819 5820 5821 5821 5822 5823 5823 5823 5824 5824 5824 5824 5824 5823 5823 5823 5822 5822 5821 5821 5821 5821 5821 5821 5821 5821 5820 5820 5820 5820 5820 5820 5819 5819 5819
5807 5808 5809 5810 5810 5811 5812 5813 5814 5815 5815 5816 5816 5817 5817 5818 5818 5818 5818 5818 5818 5818 5817 5817 5817 5816 5815 5815 5815 5815 5815 5815 5815 5814 5814 5814 5814 5814 5814 5814 5813 5813 5813
5800 5801 5802 5803 5804 5805 5806 5807 5808 5808 5809 5810 5810 5810 5811 5811 5811 5811 5812 5812 5812 5811 5811 5811 5810 5810 5809 5809 5808 5808 5808 5808 5808 5808 5808 5808 5808 5807 5807 5807 5807 5807 5807
5793 5794 5795 5796 5797 5798 5799 5800 5801 5801 5802 5803 5803 5804 5804 5804 5805 5805 5805 5805 5805 5805 5805 5804 5804 5803 5803 5802 5802 5801 5801 5800 5800 5800 5800 5800 5800 5800 5800 5800 5800 5800 5800
5786 5787 5788 5789 5790 5791 5792 5792 5793 5794 5794 5795 5796 5796 5797 5797 5797 5797 5798 5798 5797 5797 5797 5797 5796 5796 5795 5795 5794 5793 5793 5792 5792 5792 5792 5792 5792 5792 5793 5793 5793 5793 5793
5778 5779 5780 5781 5782 5783 5784 5784 5785 5786 5787 5787 5788 5788 5788 5789 5789 5789 5790 5790 5790 5789 5789 5789 5788 5788 5787 5787 5786 5785 5785 5784 5784 5784 5784 5784 5784 5784 5784 5785 5785 5785 5785
5769 5771 5772 5773 5774 5774 5775 5776 5777 5777 5778 5779 5779 5779 5780 5780 5781 5781 5781 5781 5781 5781 5781 5781 5780 5779 5778 5778 5777 5776 5776 5776 5776 5776 5776 5776 5775 5775 5776 5776 5776 5776 5776
5760 5762 5763 5764 5765 5766 5767 5767 5768 5769 5769 5769 5770 5770 5771 5771 5771 5771 5772 5771 5771 5771 5771 5771 5771 5770 5769 5768 5767 5767 5767 5767 5767 5767 5767 5767 5767 5766 5767 5767 5767 5767 5766
5751 5752 5754 5755 5756 5757 5758 5758 5759 5759 5760 5760 5760 5761 5761 5761 5762 5762 5762 5761 5761 5761 5762 5762 5761 5761 5760 5759 5758 5758 5757 5757 5758 5758 5758 5758 5757 5757 5757 5757 5757 5757 5757
5742 5743 5744 5745 5746 5747 5748 5749 5749 5750 5750 5751 5751 5751 5751 5751 5751 5751 5751 5751 5751 5751 5751 5751 5751 5751 5750 5749 5749 5748 5748 5747 5747 5748 5748 5748 5747 5747 5747 5747 5747 5747 5747
5733 5734 5735 5736 5737 5738 5738 5739 5739 5740 5740 5740 5741 5741 5741 5740 5740 5740 5740 5740 5741 5741 5741 5741 5741 5740 5739 5739 5738 5738 5738 5737 5737 5737 5737 5737 5737 5737 5736 5737 5737 5737 5737
5724 5725 5725 5726 5727 5728 5728 5729 5729 5730 5730 5730 5730 5730 5730 5729 5729 5729 5729 5729 5729 5730 5729 5729 5729 5729 5728 5728 5728 5727 5727 5727 5727 5726 5726 5726 5726 5726 5726 5726 5727 5727 5727
5714 5715 5716 5717 5717 5718 5719 5719 5719 5719 5719 5720 5719 5719 5718 5718 5718 5718 5718 5718 5718 5718 5718 5717 5717 5716 5717 5716 5716 5717 5716 5716 5715 5715 5715 5715 5716 5716 5716 5716 5716 5717 5717
5704 5705 5706 5707 5707 5708 5708 5709 5709 5709 5709 5709 5708 5708 5707 5707 5707 5706 5706 5706 5706 5706 5706 5705 5704 5704 5705 5705 5705 5705 5705 5705 5704 5704 5704 5705 5705 5705 5705 5705 5705 5706 5706
5694 5695 5696 5697 5697 5697 5698 5698 5698 5698 5698 5697 5697 5696 5696 5695 5695 5695 5694 5694 5694 5694 5693 5693 5692 5692 5693 5693 5693 5693 5694 5694 5693 5693 5693 5694 5694 5694 5695 5695 5695 5695 5695
5685 5685 5686 5687 5687 5687 5687 5687 5687 5687 5687 5687 5686 5685 5684 5683 5683 5683 5683 5682 5682 5682 5682 5681 5680 5680 5680 5681 5681 5681 5681 5682 5683 5684 5683 5683 5683 5684 5684 5684 5684 5684 5684
5674 5675 5676 5676 5676 5676 5676 5676 5677 5677 5676 5676 5675 5674 5673 5672 5671 5671 5670 5670 5670 5670 5670 5669 5668 5668 5668 5668 5669 5669 5670 5670 5672 5673 5673 5673 5673 5673 5673 5673 5673 5673 5673
5663 5664 5664 5665 5665 5665 5666 5666 5666 5666 5666 5665 5664 5663 5662 5661 5660 5659 5659 5659 5659 5659 5658 5657 5657 5657 5656 5657 5657 5657 5658 5659 5660 5662 5663 5663 5663 5663 5663 5663 5662 5662 5662
5652 5653 5653 5654 5654 5655 5655 5655 5656 5656 5655 5655 5654 5653 5652 5651 5650 5649 5648 5648 5648 5648 5647 5646 5646 5646 5645 5645 5646 5646 5647 5649 5650 5651 5652 5652 5653 5653 5653 5652 5651 5652 5652